Terug naar catalogus

STARLINK-4320

ActiefCommunicatieSSO
NORAD 53059·PAYLOAD·🇺🇸 United States

Gelanceerd Jul 11, 2022 vanaf Vandenberg Space Force Base

Loading…

Volgende Passages (komende 24 uur)

TLE

VersSource: CelesTrak SupGP

Epoch: Sep 15, 2026, 01:14 UTC

1 53059C 22077S   26258.05187500 -.00050194  00000+0 -15580-2 0  2588
2 53059  97.2859  72.9849 0001246  94.7348 122.3941 15.33467031    17

Volg STARLINK-4320 in realtime met AllMySat

Download on the App Store